| time (UTC) | temp C | wind direction | speed KPH | gust KPH | rain 1hr cm | rain 24hr cm | rain mn cm | humidity % | barometer mb |
| 20260831021134 | 21 | 98 | 0.0 | 0.0 | 0.00 | 0.38 | 0.10 | 58 | 1020.5 |
| 20260831020634 | 21 | 98 | 0.0 | 0.0 | 0.00 | 0.38 | 0.10 | 57 | 1020.5 |
| 20260831020134 | 21 | 98 | 0.0 | 0.0 | 0.00 | 0.38 | 0.10 | 56 | 1020.4 |
| 20260831015634 | 21 | 98 | 0.0 | 0.0 | 0.00 | 0.38 | 0.10 | 55 | 1020.3 |
| 20260831015134 | 21 | 98 | 0.0 | 0.0 | 0.00 | 0.38 | 0.10 | 54 | 1020.4 |
| 20260831014634 | 21 | 98 | 0.0 | 0.0 | 0.00 | 0.38 | 0.10 | 52 | 1020.4 |
| 20260831014134 | 22 | 98 | 0.0 | 0.0 | 0.00 | 0.38 | 0.10 | 52 | 1020.4 |
| 20260831013634 | 22 | 98 | 0.0 | 0.0 | 0.00 | 0.38 | 0.10 | 52 | 1020.3 |
| 20260831013134 | 22 | 98 | 0.0 | 0.0 | 0.00 | 0.38 | 0.10 | 52 | 1020.4 |
| 20260831012634 | 22 | 98 | 0.0 | 0.0 | 0.00 | 0.38 | 0.10 | 51 | 1020.3 |
| 20260831012134 | 22 | 98 | 0.0 | 0.0 | 0.00 | 0.38 | 0.10 | 52 | 1020.4 |
| 20260831011634 | 22 | 98 | 0.0 | 0.0 | 0.00 | 0.38 | 0.10 | 51 | 1020.4 |
| 20260831011134 | 22 | 98 | 0.0 | 0.0 | 0.00 | 0.38 | 0.10 | 50 | 1020.4 |
| 20260831010634 | 22 | 98 | 0.0 | 0.0 | 0.00 | 0.38 | 0.10 | 51 | 1020.4 |
| 20260831010134 | 23 | 98 | 0.0 | 4.8 | 0.00 | 0.38 | 0.10 | 50 | 1020.4 |
| 20260831005634 | 23 | 98 | 0.0 | 4.8 | 0.00 | 0.38 | 0.10 | 51 | 1020.4 |
| 20260831005134 | 23 | 99 | 0.0 | 0.0 | 0.00 | 0.38 | 0.10 | 50 | 1020.4 |
| 20260831004634 | 23 | 99 | 0.0 | 4.8 | 0.00 | 0.38 | 0.10 | 49 | 1020.4 |
| 20260831004134 | 23 | 105 | 0.0 | 4.8 | 0.00 | 0.38 | 0.10 | 50 | 1020.5 |
| 20260831003634 | 23 | 105 | 0.0 | 3.2 | 0.00 | 0.38 | 0.10 | 49 | 1020.5 |
| 20260831003134 | 23 | 105 | 0.0 | 4.8 | 0.00 | 0.38 | 0.10 | 49 | 1020.5 |
| 20260831002634 | 23 | 105 | 0.0 | 0.0 | 0.00 | 0.64 | 0.10 | 49 | 1020.4 |
| 20260831002134 | 23 | 105 | 0.0 | 11.3 | 0.00 | 0.64 | 0.10 | 49 | 1020.5 |
| 20260831001634 | 23 | 106 | 0.0 | 1.6 | 0.00 | 0.64 | 0.10 | 47 | 1020.5 |
| 20260831001134 | 23 | 106 | 0.0 | 0.0 | 0.00 | 0.64 | 0.10 | 47 | 1020.5 |
| 20260831000635 | 23 | 106 | 0.0 | 6.4 | 0.00 | 0.64 | 0.10 | 47 | 1020.5 |
| 20260831000134 | 23 | 107 | 0.0 | 4.8 | 0.00 | 0.64 | 0.10 | 47 | 1020.6 |
| 20260830235634 | 23 | 107 | 0.0 | 0.0 | 0.00 | 0.64 | 0.10 | 46 | 1020.4 |
| 20260830235135 | 23 | 107 | 0.0 | 0.0 | 0.00 | 0.64 | 0.10 | 46 | 1020.4 |
| 20260830234634 | 23 | 107 | 0.0 | 1.6 | 0.00 | 0.64 | 0.10 | 46 | 1020.5 |
| 20260830234135 | 24 | 107 | 0.0 | 3.2 | 0.00 | 0.64 | 0.10 | 46 | 1020.5 |
| 20260830233635 | 24 | 107 | 0.0 | 8.0 | 0.00 | 0.64 | 0.10 | 45 | 1020.5 |
| 20260830233135 | 24 | 121 | 0.0 | 6.4 | 0.00 | 0.64 | 0.10 | 45 | 1020.7 |
| 20260830232635 | 24 | 141 | 0.0 | 0.0 | 0.00 | 0.64 | 0.10 | 47 | 1020.7 |
| 20260830232135 | 24 | 141 | 0.0 | 4.8 | 0.00 | 0.64 | 0.10 | 48 | 1020.7 |
| 20260830231635 | 24 | 146 | 0.0 | 0.0 | 0.00 | 0.64 | 0.10 | 50 | 1020.7 |
| 20260830231135 | 24 | 146 | 0.0 | 4.8 | 0.00 | 0.64 | 0.10 | 47 | 1020.7 |
| 20260830230635 | 24 | 146 | 1.6 | 3.2 | 0.00 | 0.64 | 0.10 | 51 | 1020.7 |
| 20260830230135 | 24 | 146 | 1.6 | 4.8 | 0.00 | 0.64 | 0.10 | 51 | 1020.8 |
| 20260830225635 | 23 | 148 | 0.0 | 3.2 | 0.00 | 0.64 | 0.10 | 51 | 1020.8 |
| 20260830225135 | 23 | 148 | 0.0 | 3.2 | 0.00 | 0.64 | 0.10 | 46 | 1021.0 |
| 20260830224635 | 23 | 148 | 1.6 | 6.4 | 0.00 | 0.64 | 0.10 | 45 | 1020.8 |
| 20260830224135 | 23 | 171 | 0.0 | 3.2 | 0.00 | 0.64 | 0.10 | 46 | 1020.8 |
| 20260830223635 | 23 | 172 | 0.0 | 3.2 | 0.00 | 0.64 | 0.10 | 44 | 1020.9 |
| 20260830223135 | 23 | 172 | 0.0 | 0.0 | 0.00 | 0.64 | 0.10 | 44 | 1020.9 |
| 20260830222635 | 23 | 172 | 0.0 | 3.2 | 0.00 | 0.74 | 0.10 | 43 | 1020.9 |
| 20260830222135 | 23 | 172 | 0.0 | 3.2 | 0.00 | 0.74 | 0.10 | 43 | 1020.9 |
| 20260830221635 | 23 | 172 | 0.0 | 4.8 | 0.00 | 0.74 | 0.10 | 42 | 1020.9 |
| 20260830221135 | 23 | 172 | 1.6 | 4.8 | 0.00 | 0.74 | 0.10 | 44 | 1020.8 |
| 20260830220635 | 23 | 172 | 1.6 | 6.4 | 0.00 | 0.74 | 0.10 | 44 | 1020.7 |
| 20260830220135 | 23 | 173 | 1.6 | 6.4 | 0.00 | 0.74 | 0.10 | 45 | 1020.8 |
| 20260830215635 | 23 | 173 | 1.6 | 4.8 | 0.00 | 0.74 | 0.10 | 46 | 1021.0 |
| 20260830215135 | 23 | 173 | 3.2 | 6.4 | 0.00 | 0.74 | 0.10 | 46 | 1020.9 |
| 20260830214635 | 24 | 166 | 3.2 | 9.7 | 0.00 | 0.74 | 0.10 | 46 | 1020.8 |
| 20260830214135 | 25 | 173 | 3.2 | 9.7 | 0.00 | 0.74 | 0.10 | 45 | 1020.6 |
| 20260830213635 | 25 | 204 | 3.2 | 9.7 | 0.00 | 0.74 | 0.10 | 44 | 1020.7 |
| 20260830213135 | 25 | 165 | 1.6 | 8.0 | 0.00 | 0.74 | 0.10 | 44 | 1020.7 |
| 20260830212635 | 26 | 165 | 1.6 | 3.2 | 0.00 | 0.74 | 0.10 | 46 | 1020.6 |
| 20260830212135 | 26 | 165 | 1.6 | 6.4 | 0.00 | 0.74 | 0.10 | 49 | 1020.5 |
| 20260830211635 | 26 | 167 | 1.6 | 9.7 | 0.00 | 0.74 | 0.10 | 45 | 1020.5 |
| 20260830211135 | 25 | 198 | 1.6 | 4.8 | 0.00 | 0.74 | 0.10 | 48 | 1020.7 |
| 20260830210635 | 25 | 198 | 1.6 | 4.8 | 0.00 | 0.74 | 0.10 | 50 | 1020.8 |
| 20260830210135 | 25 | 194 | 3.2 | 4.8 | 0.00 | 0.74 | 0.10 | 49 | 1020.9 |
| 20260830205635 | 25 | 187 | 4.8 | 9.7 | 0.00 | 0.74 | 0.10 | 49 | 1020.9 |
| 20260830205135 | 25 | 171 | 4.8 | 9.7 | 0.00 | 0.74 | 0.10 | 49 | 1020.9 |
| 20260830204635 | 25 | 188 | 4.8 | 9.7 | 0.00 | 0.74 | 0.10 | 51 | 1021.0 |
| 20260830204135 | 25 | 192 | 3.2 | 6.4 | 0.00 | 0.74 | 0.10 | 51 | 1021.0 |
| 20260830203635 | 25 | 200 | 3.2 | 6.4 | 0.00 | 0.74 | 0.10 | 49 | 1021.2 |
| 20260830203135 | 26 | 200 | 3.2 | 6.4 | 0.00 | 0.74 | 0.10 | 48 | 1021.2 |
| 20260830202635 | 26 | 200 | 3.2 | 8.0 | 0.00 | 0.74 | 0.10 | 49 | 1021.3 |
| 20260830202135 | 26 | 202 | 3.2 | 8.0 | 0.00 | 0.74 | 0.10 | 49 | 1021.4 |
| 20260830201635 | 26 | 201 | 3.2 | 6.4 | 0.00 | 0.74 | 0.10 | 52 | 1021.2 |
| 20260830201135 | 25 | 204 | 3.2 | 6.4 | 0.00 | 0.74 | 0.10 | 52 | 1021.4 |
| 20260830200635 | 25 | 211 | 3.2 | 8.0 | 0.00 | 0.74 | 0.10 | 52 | 1021.4 |
| 20260830200135 | 25 | 225 | 3.2 | 9.7 | 0.00 | 0.74 | 0.10 | 52 | 1021.5 |
| 20260830195635 | 25 | 198 | 3.2 | 8.0 | 0.00 | 0.74 | 0.10 | 54 | 1021.5 |
| 20260830195135 | 25 | 198 | 3.2 | 6.4 | 0.00 | 0.74 | 0.10 | 55 | 1021.6 |
| 20260830194635 | 25 | 197 | 3.2 | 16.1 | 0.00 | 0.74 | 0.10 | 54 | 1021.7 |
| 20260830194135 | 25 | 198 | 3.2 | 8.0 | 0.00 | 0.74 | 0.10 | 54 | 1021.7 |
| 20260830193635 | 25 | 221 | 3.2 | 8.0 | 0.00 | 0.74 | 0.10 | 54 | 1021.7 |
| 20260830193135 | 24 | 193 | 3.2 | 6.4 | 0.00 | 0.74 | 0.10 | 54 | 1021.8 |
| 20260830192635 | 24 | 184 | 3.2 | 12.9 | 0.00 | 0.74 | 0.10 | 54 | 1021.8 |
| 20260830192135 | 24 | 198 | 3.2 | 6.4 | 0.00 | 0.74 | 0.10 | 57 | 1021.9 |
| 20260830191635 | 24 | 191 | 3.2 | 9.7 | 0.00 | 0.74 | 0.10 | 55 | 1022.0 |
| 20260830191135 | 24 | 201 | 1.6 | 9.7 | 0.00 | 0.74 | 0.10 | 55 | 1022.1 |
| 20260830190635 | 24 | 191 | 3.2 | 6.4 | 0.00 | 0.74 | 0.10 | 57 | 1022.1 |
| 20260830190135 | 23 | 167 | 3.2 | 11.3 | 0.00 | 0.74 | 0.10 | 57 | 1022.3 |
| 20260830185635 | 23 | 189 | 4.8 | 19.3 | 0.00 | 0.74 | 0.10 | 58 | 1022.3 |
| 20260830185135 | 23 | 182 | 4.8 | 12.9 | 0.00 | 0.74 | 0.10 | 59 | 1022.3 |
| 20260830184635 | 23 | 186 | 4.8 | 11.3 | 0.00 | 0.74 | 0.10 | 59 | 1022.3 |
| 20260830184135 | 23 | 212 | 3.2 | 16.1 | 0.00 | 0.74 | 0.10 | 58 | 1022.4 |
| 20260830183635 | 23 | 186 | 3.2 | 8.0 | 0.00 | 0.74 | 0.10 | 59 | 1022.4 |
| 20260830183135 | 23 | 174 | 4.8 | 9.7 | 0.00 | 0.74 | 0.10 | 59 | 1022.5 |
| 20260830182635 | 23 | 209 | 4.8 | 9.7 | 0.00 | 0.74 | 0.10 | 58 | 1022.6 |
| 20260830182135 | 23 | 214 | 4.8 | 19.3 | 0.00 | 0.74 | 0.10 | 58 | 1022.5 |
| 20260830181635 | 23 | 166 | 1.6 | 12.9 | 0.00 | 0.74 | 0.10 | 58 | 1022.5 |
| 20260830181135 | 23 | 186 | 1.6 | 6.4 | 0.00 | 0.74 | 0.10 | 57 | 1022.6 |
| 20260830180635 | 23 | 169 | 1.6 | 6.4 | 0.00 | 0.74 | 0.10 | 57 | 1022.6 |
| 20260830180135 | 23 | 176 | 1.6 | 8.0 | 0.00 | 0.74 | 0.10 | 57 | 1022.5 |
| 20260830175635 | 22 | 169 | 1.6 | 11.3 | 0.00 | 0.74 | 0.10 | 59 | 1022.5 |
| 20260830175135 | 22 | 169 | 1.6 | 11.3 | 0.00 | 0.74 | 0.10 | 61 | 1022.6 |
| 20260830174635 | 22 | 161 | 1.6 | 9.7 | 0.00 | 0.74 | 0.10 | 59 | 1022.7 |
| 20260830174135 | 22 | 161 | 1.6 | 9.7 | 0.00 | 0.74 | 0.10 | 59 | 1022.7 |
| 20260830173635 | 22 | 167 | 1.6 | 11.3 | 0.00 | 0.74 | 0.10 | 59 | 1022.7 |
| 20260830173135 | 22 | 201 | 0.0 | 0.0 | 0.00 | 0.74 | 0.10 | 58 | 1022.6 |
| 20260830172635 | 22 | 202 | 0.0 | 0.0 | 0.00 | 0.74 | 0.10 | 54 | 1022.6 |
| 20260830172135 | 21 | 202 | 0.0 | 0.0 | 0.00 | 0.74 | 0.10 | 56 | 1022.6 |
| 20260830171635 | 21 | 202 | 0.0 | 1.6 | 0.00 | 0.74 | 0.10 | 57 | 1022.5 |
| 20260830171135 | 21 | 202 | 0.0 | 0.0 | 0.00 | 0.74 | 0.10 | 57 | 1022.5 |
| 20260830170635 | 21 | 201 | 1.6 | 9.7 | 0.00 | 0.74 | 0.10 | 60 | 1022.5 |
| 20260830170135 | 21 | 205 | 0.0 | 8.0 | 0.00 | 0.74 | 0.10 | 60 | 1022.5 |
| 20260830165635 | 21 | 206 | 0.0 | 0.0 | 0.00 | 0.74 | 0.10 | 63 | 1022.5 |
| 20260830165135 | 21 | 206 | 0.0 | 0.0 | 0.00 | 0.74 | 0.10 | 63 | 1022.5 |
| 20260830164635 | 20 | 206 | 0.0 | 0.0 | 0.00 | 0.74 | 0.10 | 60 | 1022.4 |
| 20260830164135 | 20 | 206 | 0.0 | 3.2 | 0.00 | 0.74 | 0.10 | 63 | 1022.3 |
| 20260830163635 | 20 | 206 | 0.0 | 3.2 | 0.00 | 0.74 | 0.10 | 62 | 1022.3 |
| 20260830163135 | 20 | 206 | 0.0 | 0.0 | 0.00 | 0.74 | 0.10 | 63 | 1022.3 |
| 20260830162635 | 20 | 206 | 0.0 | 4.8 | 0.00 | 1.37 | 0.10 | 66 | 1022.2 |
| 20260830162135 | 20 | 205 | 0.0 | 0.0 | 0.00 | 1.37 | 0.10 | 64 | 1021.9 |
| 20260830161635 | 19 | 205 | 0.0 | 0.0 | 0.00 | 1.37 | 0.10 | 67 | 1022.0 |
| 20260830161135 | 19 | 205 | 0.0 | 0.0 | 0.00 | 1.37 | 0.10 | 70 | 1022.1 |
| 20260830160635 | 18 | 205 | 0.0 | 0.0 | 0.00 | 1.37 | 0.10 | 71 | 1022.2 |
| 20260830155135 | 18 | 205 | 0.0 | 0.0 | 0.00 | 1.37 | 0.10 | 79 | 1022.2 |
| 20260830154635 | 17 | 205 | 0.0 | 0.0 | 0.00 | 1.37 | 0.10 | 81 | 1022.2 |
| 20260830154135 | 17 | 205 | 0.0 | 0.0 | 0.00 | 1.37 | 0.10 | 82 | 1022.2 |
| 20260830153635 | 17 | 205 | 0.0 | 0.0 | 0.00 | 1.37 | 0.10 | 82 | 1022.3 |
| 20260830153135 | 17 | 205 | 0.0 | 0.0 | 0.00 | 1.37 | 0.10 | 84 | 1022.3 |
| 20260830152635 | 17 | 205 | 0.0 | 0.0 | 0.00 | 1.37 | 0.10 | 84 | 1022.2 |
| 20260830152135 | 17 | 205 | 0.0 | 0.0 | 0.00 | 1.37 | 0.10 | 84 | 1022.1 |
| 20260830151635 | 16 | 205 | 0.0 | 0.0 | 0.00 | 1.37 | 0.10 | 83 | 1022.2 |
| 20260830151135 | 16 | 205 | 0.0 | 0.0 | 0.00 | 1.37 | 0.10 | 84 | 1022.2 |
| 20260830150635 | 16 | 205 | 0.0 | 0.0 | 0.00 | 1.37 | 0.10 | 88 | 1022.3 |
| 20260830150135 | 16 | 205 | 0.0 | 0.0 | 0.00 | 1.37 | 0.10 | 88 | 1022.4 |
| 20260830145635 | 16 | 205 | 0.0 | 0.0 | 0.00 | 1.37 | 0.10 | 87 | 1022.3 |
| 20260830145135 | 16 | 205 | 0.0 | 0.0 | 0.00 | 1.37 | 0.10 | 86 | 1022.1 |
| 20260830144635 | 16 | 205 | 0.0 | 0.0 | 0.00 | 1.37 | 0.10 | 87 | 1022.2 |
| 20260830144135 | 16 | 205 | 0.0 | 0.0 | 0.00 | 1.37 | 0.10 | 88 | 1022.2 |
| 20260830143635 | 15 | 205 | 0.0 | 0.0 | 0.00 | 1.37 | 0.10 | 90 | 1022.1 |
| 20260830143135 | 15 | 205 | 0.0 | 0.0 | 0.00 | 1.37 | 0.10 | 92 | 1022.3 |
| 20260830142635 | 15 | 205 | 0.0 | 0.0 | 0.00 | 1.37 | 0.10 | 92 | 1022.3 |
| 20260830142135 | 14 | 205 | 0.0 | 0.0 | 0.00 | 1.37 | 0.10 | 92 | 1022.4 |
| 20260830141635 | 14 | 205 | 0.0 | 0.0 | 0.03 | 1.37 | 0.10 | 92 | 1022.4 |
| 20260830141135 | 13 | 205 | 0.0 | 0.0 | 0.08 | 1.37 | 0.10 | 91 | 1022.3 |
| 20260830140635 | 13 | 205 | 0.0 | 0.0 | 0.08 | 1.37 | 0.10 | 90 | 1022.3 |
| 20260830140135 | 13 | 205 | 0.0 | 0.0 | 0.08 | 1.37 | 0.10 | 90 | 1022.3 |
| 20260830135635 | 13 | 205 | 0.0 | 0.0 | 0.08 | 1.37 | 0.10 | 90 | 1022.2 |
| 20260830135135 | 13 | 205 | 0.0 | 0.0 | 0.08 | 1.37 | 0.10 | 90 | 1022.1 |
| 20260830134635 | 13 | 205 | 0.0 | 0.0 | 0.08 | 1.37 | 0.10 | 90 | 1022.1 |
| 20260830134136 | 14 | 205 | 0.0 | 0.0 | 0.08 | 1.37 | 0.10 | 89 | 1022.0 |
| 20260830133636 | 14 | 205 | 0.0 | 0.0 | 0.08 | 1.37 | 0.10 | 89 | 1022.0 |
| 20260830133135 | 14 | 205 | 0.0 | 0.0 | 0.08 | 1.37 | 0.10 | 90 | 1021.9 |
| 20260830132636 | 14 | 205 | 0.0 | 4.8 | 0.10 | 1.63 | 0.10 | 90 | 1021.9 |
| 20260830132136 | 14 | 205 | 0.0 | 0.0 | 0.10 | 1.63 | 0.10 | 90 | 1021.8 |
| 20260830131635 | 15 | 205 | 0.0 | 0.0 | 0.08 | 1.60 | 0.08 | 90 | 1021.8 |
| 20260830131136 | 15 | 205 | 0.0 | 0.0 | 0.03 | 1.55 | 0.03 | 90 | 1022.1 |
| 20260830130636 | 15 | 205 | 0.0 | 0.0 | 0.03 | 1.55 | 0.03 | 90 | 1021.9 |
| 20260830130136 | 15 | 205 | 0.0 | 4.8 | 0.03 | 1.55 | 0.03 | 89 | 1022.0 |
| 20260830125636 | 15 | 205 | 0.0 | 0.0 | 0.03 | 1.55 | 0.03 | 89 | 1021.8 |
| 20260830125136 | 15 | 205 | 0.0 | 0.0 | 0.03 | 1.55 | 0.03 | 89 | 1021.5 |
| 20260830124636 | 15 | 205 | 0.0 | 0.0 | 0.03 | 1.55 | 0.03 | 89 | 1021.5 |
| 20260830124136 | 15 | 205 | 0.0 | 0.0 | 0.03 | 1.55 | 0.03 | 89 | 1021.6 |
| 20260830123636 | 15 | 205 | 0.0 | 0.0 | 0.03 | 1.55 | 0.03 | 89 | 1021.8 |
| 20260830123136 | 15 | 205 | 0.0 | 0.0 | 0.03 | 1.55 | 0.03 | 88 | 1021.9 |
| 20260830122636 | 15 | 205 | 0.0 | 3.2 | 0.00 | 1.52 | 0.00 | 88 | 1021.9 |
| 20260830122136 | 15 | 205 | 0.0 | 0.0 | 0.00 | 1.52 | 0.00 | 88 | 1021.6 |
| 20260830121636 | 15 | 205 | 0.0 | 0.0 | 0.00 | 1.52 | 0.00 | 87 | 1021.8 |
| 20260830121136 | 15 | 205 | 0.0 | 1.6 | 0.00 | 1.52 | 0.00 | 86 | 1021.5 |
| 20260830120636 | 14 | 205 | 0.0 | 0.0 | 0.00 | 1.52 | 0.00 | 85 | 1021.3 |
| 20260830120136 | 14 | 205 | 0.0 | 0.0 | 0.00 | 1.52 | 0.00 | 84 | 1021.3 |
| 20260830115636 | 14 | 205 | 0.0 | 0.0 | 0.00 | 1.52 | 0.00 | 84 | 1021.4 |
| 20260830115227 | 15 | 205 | 0.0 | 0.0 | 0.00 | 1.52 | 0.00 | 85 | 1021.3 |
| 20260830114636 | 15 | 205 | 0.0 | 0.0 | 0.00 | 1.52 | 0.00 | 84 | 1021.5 |
| 20260830114136 | 15 | 205 | 0.0 | 0.0 | 0.00 | 1.52 | 0.00 | 84 | 1021.6 |
| 20260830113636 | 15 | 205 | 0.0 | 0.0 | 0.00 | 1.52 | 0.00 | 83 | 1021.6 |
| 20260830113136 | 15 | 205 | 0.0 | 0.0 | 0.00 | 1.52 | 0.00 | 83 | 1021.7 |
| 20260830112636 | 15 | 205 | 0.0 | 0.0 | 0.00 | 1.52 | 0.00 | 83 | 1021.8 |
| 20260830112136 | 15 | 205 | 0.0 | 0.0 | 0.00 | 1.52 | 0.00 | 83 | 1021.6 |
| 20260830111636 | 15 | 205 | 0.0 | 0.0 | 0.00 | 1.52 | 0.00 | 82 | 1022.2 |
| 20260830111136 | 15 | 205 | 0.0 | 0.0 | 0.00 | 1.52 | 0.00 | 82 | 1021.5 |
| 20260830110636 | 15 | 205 | 0.0 | 0.0 | 0.00 | 1.52 | 0.00 | 81 | 1020.9 |
| 20260830110136 | 15 | 205 | 0.0 | 0.0 | 0.00 | 1.52 | 0.00 | 81 | 1021.0 |
| 20260830105636 | 15 | 205 | 0.0 | 0.0 | 0.00 | 1.52 | 0.00 | 81 | 1021.0 |
| 20260830105136 | 15 | 205 | 0.0 | 0.0 | 0.00 | 1.52 | 0.00 | 80 | 1021.0 |
| 20260830104636 | 15 | 205 | 0.0 | 0.0 | 0.00 | 1.52 | 0.00 | 79 | 1021.0 |
| 20260830104136 | 15 | 205 | 0.0 | 0.0 | 0.00 | 1.52 | 0.00 | 79 | 1021.0 |
| 20260830103636 | 15 | 205 | 0.0 | 0.0 | 0.00 | 1.52 | 0.00 | 79 | 1021.1 |
| 20260830103136 | 15 | 205 | 0.0 | 0.0 | 0.00 | 1.52 | 0.00 | 79 | 1021.2 |
| 20260830102636 | 15 | 205 | 0.0 | 0.0 | 0.00 | 1.52 | 0.00 | 79 | 1021.3 |
| 20260830102136 | 15 | 205 | 1.6 | 3.2 | 0.00 | 1.52 | 0.00 | 79 | 1021.4 |
| 20260830101636 | 16 | 205 | 0.0 | 0.0 | 0.00 | 1.52 | 0.00 | 79 | 1021.4 |
| 20260830101136 | 16 | 205 | 0.0 | 0.0 | 0.00 | 1.52 | 0.00 | 78 | 1021.6 |
| 20260830100636 | 16 | 205 | 0.0 | 0.0 | 0.00 | 1.52 | 0.00 | 77 | 1021.4 |
| 20260830100136 | 15 | 205 | 0.0 | 0.0 | 0.00 | 1.52 | 0.00 | 77 | 1021.3 |
| 20260830095636 | 15 | 205 | 0.0 | 0.0 | 0.00 | 1.52 | 0.00 | 78 | 1021.2 |
| 20260830095136 | 15 | 205 | 0.0 | 0.0 | 0.00 | 1.52 | 0.00 | 78 | 1021.0 |
| 20260830094636 | 16 | 205 | 0.0 | 0.0 | 0.00 | 1.52 | 0.00 | 77 | 1021.0 |
| 20260830094136 | 16 | 205 | 0.0 | 0.0 | 0.00 | 1.52 | 0.00 | 77 | 1021.1 |
| 20260830093636 | 16 | 205 | 0.0 | 0.0 | 0.00 | 1.52 | 0.00 | 76 | 1021.0 |
| 20260830093136 | 16 | 205 | 0.0 | 0.0 | 0.00 | 1.52 | 0.00 | 76 | 1021.3 |
| 20260830092636 | 16 | 205 | 1.6 | 4.8 | 0.00 | 1.55 | 0.00 | 76 | 1021.4 |
| 20260830092136 | 16 | 205 | 1.6 | 4.8 | 0.00 | 1.55 | 0.00 | 77 | 1021.6 |
| 20260830091636 | 16 | 205 | 0.0 | 6.4 | 0.00 | 1.55 | 0.00 | 77 | 1021.7 |
| 20260830091136 | 16 | 205 | 0.0 | 0.0 | 0.00 | 1.55 | 0.00 | 75 | 1021.6 |
| 20260830090636 | 16 | 205 | 0.0 | 0.0 | 0.00 | 1.55 | 0.00 | 74 | 1021.6 |
| 20260830090136 | 17 | 205 | 0.0 | 0.0 | 0.00 | 1.55 | 0.00 | 73 | 1021.3 |
| 20260830085636 | 17 | 205 | 0.0 | 0.0 | 0.00 | 1.55 | 0.00 | 72 | 1021.3 |
| 20260830085136 | 17 | 205 | 0.0 | 1.6 | 0.00 | 1.55 | 0.00 | 72 | 1021.3 |
| 20260830084636 | 17 | 205 | 1.6 | 4.8 | 0.00 | 1.55 | 0.00 | 73 | 1021.2 |
| 20260830084136 | 17 | 205 | 1.6 | 6.4 | 0.00 | 1.55 | 0.00 | 73 | 1021.2 |
| 20260830083636 | 17 | 205 | 0.0 | 8.0 | 0.00 | 1.55 | 0.00 | 72 | 1021.4 |
| 20260830083136 | 17 | 201 | 1.6 | 0.0 | 0.00 | 1.55 | 0.00 | 71 | 1021.6 |
| 20260830082636 | 17 | 201 | 3.2 | 8.0 | 0.00 | 1.78 | 0.00 | 72 | 1021.5 |
| 20260830082136 | 17 | 201 | 4.8 | 11.3 | 0.00 | 1.78 | 0.00 | 70 | 1021.3 |
| 20260830081636 | 17 | 200 | 4.8 | 11.3 | 0.00 | 1.78 | 0.00 | 70 | 1020.9 |
| 20260830081136 | 17 | 200 | 3.2 | 9.7 | 0.00 | 1.78 | 0.00 | 71 | 1020.9 |
| 20260830080636 | 17 | 208 | 1.6 | 8.0 | 0.00 | 1.78 | 0.00 | 70 | 1021.0 |
| 20260830080136 | 17 | 203 | 1.6 | 4.8 | 0.00 | 1.78 | 0.00 | 69 | 1021.1 |
| 20260830075636 | 17 | 203 | 1.6 | 6.4 | 0.00 | 1.78 | 0.00 | 67 | 1021.2 |
| 20260830075136 | 17 | 203 | 3.2 | 6.4 | 0.00 | 1.78 | 0.00 | 69 | 1021.1 |
| 20260830074636 | 17 | 204 | 1.6 | 8.0 | 0.00 | 1.78 | 0.00 | 69 | 1020.7 |
| 20260830074136 | 17 | 222 | 0.0 | 8.0 | 0.00 | 1.78 | 0.00 | 69 | 1020.7 |
| 20260830073636 | 17 | 222 | 0.0 | 3.2 | 0.00 | 1.78 | 0.00 | 71 | 1020.5 |
| 20260830073136 | 17 | 222 | 0.0 | 0.0 | 0.00 | 1.78 | 0.00 | 72 | 1020.7 |
| 20260830072636 | 17 | 222 | 0.0 | 0.0 | 0.00 | 1.78 | 0.00 | 73 | 1021.0 |
| 20260830072136 | 17 | 222 | 0.0 | 0.0 | 0.00 | 1.78 | 0.00 | 72 | 1021.1 |
| 20260830071636 | 17 | 222 | 0.0 | 0.0 | 0.00 | 1.78 | 0.00 | 73 | 1021.0 |
| 20260830071136 | 18 | 222 | 0.0 | 1.6 | 0.00 | 1.78 | 0.00 | 69 | 1020.9 |
| 20260830070636 | 18 | 222 | 3.2 | 4.8 | 0.00 | 1.78 | 0.00 | 64 | 1020.3 |
| 20260830070136 | 17 | 221 | 4.8 | 14.5 | 0.00 | 1.78 | 0.00 | 66 | 1019.9 |
| 20260830065636 | 17 | 174 | 6.4 | 9.7 | 0.00 | 1.78 | 0.00 | 67 | 1020.1 |
| 20260830065136 | 17 | 234 | 6.4 | 11.3 | 0.00 | 1.78 | 0.00 | 70 | 1020.6 |
| 20260830064636 | 17 | 190 | 6.4 | 11.3 | 0.00 | 1.78 | 0.00 | 72 | 1020.6 |
| 20260830064136 | 17 | 201 | 6.4 | 11.3 | 0.03 | 1.78 | 0.00 | 76 | 1020.4 |
| 20260830063636 | 17 | 198 | 4.8 | 14.5 | 0.03 | 1.78 | 0.00 | 81 | 1020.4 |
| 20260830063136 | 17 | 233 | 3.2 | 14.5 | 0.03 | 1.78 | 0.00 | 81 | 1020.5 |
| 20260830062636 | 16 | 240 | 0.0 | 6.4 | 0.03 | 1.80 | 0.00 | 79 | 1020.9 |
| 20260830062136 | 16 | 241 | 0.0 | 0.0 | 0.03 | 1.80 | 0.00 | 77 | 1020.4 |
| 20260830061636 | 16 | 241 | 0.0 | 0.0 | 0.03 | 1.80 | 0.00 | 76 | 1020.4 |
| 20260830061136 | 17 | 241 | 1.6 | 6.4 | 0.03 | 1.80 | 0.00 | 76 | 1021.1 |
| 20260830060636 | 17 | 243 | 3.2 | 9.7 | 0.03 | 1.80 | 0.00 | 76 | 1020.5 |
| 20260830060136 | 17 | 238 | 4.8 | 9.7 | 0.03 | 1.80 | 0.00 | 75 | 1020.1 |
| 20260830055636 | 17 | 143 | 8.0 | 17.7 | 0.03 | 1.80 | 1.80 | 73 | 1020.4 |
| 20260830055136 | 17 | 209 | 8.0 | 19.3 | 0.05 | 1.80 | 1.80 | 71 | 1020.1 |
| 20260830054636 | 17 | 228 | 6.4 | 14.5 | 0.10 | 1.80 | 1.80 | 64 | 1020.1 |
| 20260830054136 | 17 | 216 | 4.8 | 11.3 | 0.10 | 1.78 | 1.78 | 64 | 1020.2 |
| 20260830053636 | 17 | 161 | 6.4 | 14.5 | 0.15 | 1.78 | 1.78 | 64 | 1020.4 |
| 20260830053136 | 16 | 204 | 4.8 | 11.3 | 0.18 | 1.78 | 1.78 | 65 | 1020.2 |
| 20260830052636 | 16 | 209 | 4.8 | 9.7 | 0.20 | 1.78 | 1.78 | 69 | 1020.0 |
| 20260830052136 | 15 | 164 | 6.4 | 11.3 | 0.20 | 1.78 | 1.78 | 71 | 1019.9 |
| 20260830051636 | 15 | 219 | 6.4 | 11.3 | 0.23 | 1.78 | 1.78 | 73 | 1020.0 |
| 20260830051136 | 15 | 210 | 4.8 | 12.9 | 0.23 | 1.78 | 1.78 | 76 | 1019.9 |
| 20260830050636 | 15 | 213 | 3.2 | 9.7 | 0.23 | 1.78 | 1.78 | 77 | 1020.7 |
| 20260830050136 | 15 | 222 | 3.2 | 8.0 | 0.23 | 1.78 | 1.78 | 76 | 1021.2 |
| 20260830045636 | 15 | 223 | 3.2 | 9.7 | 0.23 | 1.78 | 1.78 | 75 | 1022.6 |
| 20260830045136 | 16 | 229 | 3.2 | 9.7 | 0.20 | 1.75 | 1.75 | 72 | 1023.0 |
| 20260830044636 | 16 | 284 | 4.8 | 20.9 | 0.15 | 1.70 | 1.70 | 69 | 1023.2 |
| 20260830044136 | 17 | 248 | 4.8 | 43.5 | 0.13 | 1.68 | 1.68 | 66 | 1023.1 |
| 20260830043636 | 17 | 244 | 6.4 | 24.1 | 0.10 | 1.63 | 1.63 | 63 | 1022.5 |
| 20260830043136 | 17 | 266 | 8.0 | 27.4 | 0.08 | 1.60 | 1.60 | 62 | 1022.2 |
| 20260830042636 | 18 | 272 | 8.0 | 32.2 | 0.05 | 1.57 | 1.57 | 60 | 1022.2 |
| 20260830042136 | 18 | 279 | 8.0 | 25.7 | 0.05 | 1.60 | 1.57 | 59 | 1021.7 |
| 20260830041636 | 18 | 271 | 6.4 | 22.5 | 0.03 | 1.57 | 1.55 | 59 | 1021.4 |
| 20260830041136 | 18 | 259 | 4.8 | 19.3 | 0.03 | 1.57 | 1.55 | 63 | 1021.3 |
| 20260830040636 | 17 | 242 | 4.8 | 11.3 | 0.03 | 1.57 | 1.55 | 65 | 1020.7 |
| 20260830040137 | 17 | 174 | 4.8 | 9.7 | 0.03 | 1.57 | 1.55 | 66 | 1020.8 |
| 20260830035637 | 18 | 244 | 3.2 | 9.7 | 0.03 | 1.57 | 1.55 | 67 | 1021.0 |
| 20260830035136 | 17 | 183 | 4.8 | 8.0 | 0.03 | 1.57 | 1.55 | 65 | 1021.0 |
| 20260830034637 | 18 | 192 | 6.4 | 12.9 | 0.03 | 1.57 | 1.55 | 66 | 1020.8 |
| 20260830034136 | 18 | 217 | 8.0 | 11.3 | 0.03 | 1.57 | 1.55 | 65 | 1020.8 |
| 20260830033636 | 18 | 203 | 6.4 | 16.1 | 0.00 | 1.55 | 1.52 | 62 | 1020.7 |
| 20260830033136 | 18 | 276 | 3.2 | 12.9 | 0.00 | 1.55 | 1.52 | 59 | 1021.1 |
| 20260830032636 | 18 | 141 | 1.6 | 11.3 | 0.00 | 1.55 | 1.52 | 60 | 1020.3 |
| 20260830032137 | 18 | 292 | 0.0 | 6.4 | 0.00 | 1.55 | 1.52 | 63 | 1020.4 |
| 20260830031637 | 18 | 292 | 1.6 | 9.7 | 0.00 | 1.55 | 1.52 | 66 | 1020.0 |
| 20260830031137 | 18 | 292 | 0.0 | 8.0 | 0.00 | 1.55 | 1.52 | 63 | 1019.8 |
| 20260830030637 | 17 | 292 | 0.0 | 1.6 | 0.00 | 1.55 | 1.52 | 63 | 1019.6 |
| 20260830030137 | 17 | 292 | 0.0 | 1.6 | 0.00 | 1.55 | 1.52 | 65 | 1019.2 |
| 20260830025637 | 17 | 292 | 0.0 | 3.2 | 0.00 | 1.55 | 1.52 | 67 | 1019.0 |
| 20260830025137 | 17 | 292 | 0.0 | 9.7 | 0.00 | 1.55 | 1.52 | 70 | 1019.1 |
| 20260830024637 | 17 | 292 | 0.0 | 0.0 | 0.00 | 1.55 | 1.52 | 72 | 1019.1 |
| 20260830024137 | 16 | 292 | 0.0 | 4.8 | 0.00 | 1.55 | 1.52 | 68 | 1018.8 |
| 20260830023637 | 16 | 292 | 0.0 | 0.0 | 0.00 | 1.55 | 1.52 | 71 | 1018.6 |
| 20260830023137 | 16 | 292 | 0.0 | 3.2 | 0.00 | 1.55 | 1.52 | 73 | 1018.7 |
| 20260830022637 | 16 | 292 | 0.0 | 6.4 | 0.00 | 1.55 | 1.52 | 72 | 1018.8 |
| 20260830022137 | 16 | 292 | 0.0 | 0.0 | 0.00 | 1.55 | 1.52 | 77 | 1018.8 |
| 20260830021637 | 16 | 292 | 0.0 | 3.2 | 0.00 | 1.55 | 1.52 | 78 | 1019.0 |